Retour au catalogue

DELTA 1 DEB

ActifSSO
NORAD 21360·DEBRIS·🇺🇸 United States

Lancé Jun 12, 1975 depuis Vandenberg Space Force Base

Loading…

Prochains Passages (prochaines 24 heures)

TLE

FraisSource: Space-Track

Époque: Sep 14, 2026, 09:46 UTC

1 21360U 75052CE  26257.40760028 -.00000012  00000-0  63804-4 0  9999
2 21360  99.7879 317.6122 0077067 207.1003 164.1437 13.29445996713554

Suivez DELTA 1 DEB en temps réel avec AllMySat

Download on the App Store